This is the latest recevied weather packets stored in our database for station/object WA7CUG. If no packets are shown the sender has not sent any weather packets the latest 10 day(s).
| Time | Temp. | Humidity | Pressure | Rain* | Wind** | Luminosity | Snow |
|---|---|---|---|---|---|---|---|
| 1778064597 | 13.33° C | 68% | 1012.3 hPa | 0 mm | - | 0 W/m² | - |
| 1778064295 | 13.89° C | 67% | 1012.2 hPa | 0 mm | - | 0 W/m² | - |
| 1778063993 | 13.89° C | 65% | 1012.3 hPa | 0 mm | - | 0 W/m² | - |
| 1778063690 | 14.44° C | 65% | 1012 hPa | 0 mm | - | 0 W/m² | - |
| 1778063387 | 14.44° C | 64% | 1012 hPa | 0 mm | - | 0 W/m² | - |
| 1778063085 | 15° C | 63% | 1011.8 hPa | 0 mm | - | 0 W/m² | - |
| 1778062782 | 15° C | 62% | 1011.9 hPa | 0 mm | - | 0 W/m² | - |
| 1778062478 | 15° C | 62% | 1012 hPa | 0 mm | - | 0 W/m² | - |
| 1778062176 | 14.44° C | 63% | 1012.2 hPa | 0 mm | - | 0 W/m² | - |
| 1778061874 | 13.89° C | 66% | 1012.1 hPa | 0 mm | - | 0 W/m² | - |
| 1778061572 | 13.89° C | 68% | 1012.1 hPa | 0 mm | - | 0 W/m² | - |
| 1778061270 | 13.89° C | 67% | 1012.2 hPa | 0 mm | - | 0 W/m² | - |
| 1778060966 | 13.33° C | 69% | 1012.1 hPa | 0 mm | - | 0 W/m² | - |
| 1778060665 | 13.33° C | 68% | 1012 hPa | 0 mm | - | 0 W/m² | - |
| 1778060362 | 13.33° C | 69% | 1012.1 hPa | 0 mm | - | 0 W/m² | - |
| 1778060060 | 13.89° C | 70% | 1012 hPa | 0 mm | - | 0 W/m² | - |
| 1778059757 | 13.89° C | 67% | 1011.9 hPa | 0 mm | - | 0 W/m² | - |
| 1778059455 | 14.44° C | 67% | 1012 hPa | 0 mm | - | 0 W/m² | - |
| 1778059151 | 15° C | 65% | 1011.8 hPa | 0 mm | - | 0 W/m² | - |
| 1778058849 | 15.56° C | 61% | 1011.4 hPa | 0 mm | - | 0 W/m² | - |
| 1778058546 | 15.56° C | 62% | 1011.7 hPa | 0 mm | - | 0 W/m² | - |
| 1778058244 | 15.56° C | 61% | 1011.7 hPa | 0 mm | - | 0 W/m² | - |
| 1778057941 | 16.11° C | 60% | 1011.8 hPa | 0 mm | - | 0 W/m² | - |
| 1778057637 | 16.67° C | 59% | 1011.7 hPa | 0 mm | - | 0 W/m² | - |
| 1778057333 | 16.67° C | 58% | 1011.8 hPa | 0 mm | - | 0 W/m² | - |
* Rain latest hour (hover to see other rain measurements)
** Current wind speed in m/s (hover to see current wind gust speed)